EHI
0 0 0 0 0 0 0 0 0 0 0 0 0 0 0 0 0 0 0 0 0 0 0 0 0 0 0 0 0 0 0 0 0 0 0 0 0 0 0 0 0 0 0 0
0 0 0 0 0 0 0 0 0 0 0 0 0 0 0 0 0 0 0 0 0 0 0 0 0 0 0 0 0 0 0 0 0 0 0 0 0 0 0 0 0 0 0 0
0 0 0 0 0 0 0 0 0 0 0 0 0 0 0 0 0 0 0 0 0 0 0 0 0 0 0 0 0 0 0 0 0 0 0 0 0 0 0 0 0 0 0 0
0 0 0 0 0 0 0 0 0 0 0 0 0 0 0 0 0 0 0 0 0 0 0 0 0 0 0 0 0 0 0 0 0 0 0 0 0 0 0 0 0 0 0 0
0 0 0 0 0 0 0 0 0 0 0 0 0 0 0 0 0 0 0 0 0 0 0 0 0 0 0 0 0 0 0 0 0 0 0 0 0 0 0 0 0 0 0 0
0 0 0 0 0 0 0 0 0 0 0 0 0 0 0 0 0 0 0 0 0 0 0 0 0 0 0 0 0 0 0 0 0 0 0 0 0 0 0 0 0 0 0 0
0 0 0 0 0 0 0 0 0 0 0 0 0 0 0 0 0 0 0 0 0 0 0 0 0 0 0 0 0 0 0 0 0 0 0 0 0 0 0 0 0 0 0 0
0 0 0 0 0 0 0 0 0 0 0 0 0 0 0 0 0 0 0 0 0 0 0 0 0 0 0 0 0 0 0 0 0 0 0 0 0 0 0 0 0 0 0 0
0 0 0 0 0 0 0 0 0 0 0 0 0 0 0 0 0 0 0 0 0 0 0 0 0 0 0 0 0 0 0 0 0 0 0 0 0 0 0 0 0 0 0 0
0 0 0 0 0 0 0 0 0 0 0 0 0 0 0 0 0 0 0 0 0 0 0 0 0 0 0 0 0 0 0 0 0 0 0 0 0 0 0 0 0 0 0 0
0 0 0 0 0 0 0 0 0 0 0 0 0 0 0 0 0 0 0 0 0 0 0 0 0 0 0 0 0 0 0 0 0 0 0 0 0 0 0 0 0 0 0 0
0 0 0 0 0 0 0 0 0 0 0 0 0 0 0 0 0 0 0 0 0 0 0 0 0 0 0 0 0 0 0 0 0 0 0 0 0 0 0 0 0 0 0 0
0 0 0 0 0 0 0 0 0 0 0 0 0 0 0 0 0 0 0 0 0 0 0 0 0 0 0 0 0 0 0 0 0 0 0 0 0 0 0 0 0 0 0 0
0 0 0 0 0 0 0 0 0 0 0 0 0 0 0 0 0 0 0 0 0 0 0 0 0 0 0 0 0 0 0 0 0 0 0 0 0 0 0 0 0 0 0 0
0 0 0 0 0 0 0 0 0 0 0 0 0 0 0 0 0 0 0 0 0 0 0 0 0 0 0 0 0 0 0 0 0 0 0 0 0 0 0 0 0 0 0 0
0 0 0 0 0 0 0 0 0 0 0 0 0 0 0 0 0 0 0 0 0 0 0 0 0 0 0 0 0 0 0 0 0 0 0 0 0 0 0 0 0 0 0 0
0 0 0 0 0 0 0 0 0 0 0 0 0 0 0 0 0 0 0 0 0 0 0 0 0 0 0 0 0 0 0 0 0 0 0 0 0 0 0 0 0 0 0 0
0 0 0 0 0 0 0 0 0 0 0 0 0 0 0 0 0 0 0 0 0 0 0 0 0 0 0 0 0 0 0 0 0 0 0 0 0 0 0 0 0 0 0 0
0 0 0 0 0 0 0 0 0 0 0 0 0 0 0 0 0 0 0 0 0 0 0 0 0 0 0 0 0 0 0 0 0 0 0 0 0 0 0 0 0 0 0 0
0 0 0 0 0 0 0 0 0 0 0 0 0 0 0 0 0 0 0 0 0 0 0 0 0 0 0 0 0 0 0 0 0 0 0 0 0 0 0 0 0 0 0 0
0 0 0 0 0 0 0 0 0 0 0 0 0 0 0 0 0 0 0 0 0 0 0 0 0 0 0 0 0 0 0 0 0 0 0 0 0 0 0 0 0 0 0 0
0 0 0 0 0 0 0 0 0 0 0 0 0 0 0 0 0 0 0 0 0 0 0 0 0 0 0 0 0 0 0 0 0 0 0 0 0 0 0 0 0 0 0 0
0 0 0 0 0 0 0 0 0 0 0 0 0 0 0 0 0 0 0 0 0 0 0 0 0 0 0 0 0 0 0 0 0 0 0 0 0 0 0 0 0 0 0 0
0 0 0 0 0 0 0 0 0 0 0 0 0 0 0 0 0 0 0 0 0 0 0 0 0 0 0 0 0 0 0 0 0 0 0 0 0 0 0 0 0 0 0 0
0 0 0 0 0 0 0 0 0 0 0 0 0 0 0 0 0 0 0 0 0 0 0 0 0 0 0 0 0 0 0 0 0 0 0 0 0 0 0 0 0 0 0 0
0 0 0 0 0 0 0 0 0 0 0 0 0 0 0 0 0 0 0 0 0 0 0 0 0 0 0 0 0 0 0 0 0 0 0 0 0 0 0 0 0 0 0 0
0 0 0 0 0 0 0 0 0 0 0 0 0 0 0 0 0 0 0 0 0 0 0 0 0 0 0 0 0 0 0 0 0 0 0 0 0 0 0 0 0 0 0 0
Wind_Speed
6 5 3 5 6 5 7 8 9 8 8 10 9 8 7 5 4 4 5 5 6 5 5 5 5 5 5 6 5 4 4 5 6 6 6 6 7 7 7 7 8 8 8 9
3 2 3 5 6 4 5 4 6 4 8 7 3 3 3 5 6 6 7 7 7 7 6 6 6 6 5 6 5 4 5 6 6 6 6 6 7 7 7 8 8 8 8 9
4 4 3 5 5 3 4 5 7 8 8 2 4 7 8 8 8 8 9 8 8 7 7 7 6 6 6 6 5 4 5 6 6 6 7 7 8 7 8 8 7 8 8 8
2 1 4 10 4 5 4 5 6 6 5 6 7 5 4 6 9 9 9 8 8 7 7 6 5 5 5 5 4 5 5 6 6 6 7 7 7 8 8 7 7 8 9 9
4 3 6 9 4 4 4 5 5 7 5 3 3 3 4 7 9 10 10 9 8 8 6 5 6 5 4 5 5 5 6 6 6 6 7 8 8 9 8 7 8 8 8 9
4 4 6 11 4 3 4 5 6 7 8 7 7 3 8 8 9 10 8 7 7 6 5 5 6 4 4 6 5 7 7 6 6 6 7 8 9 9 7 7 8 8 9 8
4 4 9 9 2 5 3 10 6 10 10 11 11 11 7 5 8 10 9 8 7 6 6 7 5 4 5 6 7 7 6 6 6 6 7 8 8 7 8 8 8 8 9 9
4 3 9 4 6 8 11 6 4 9 11 13 13 9 6 6 8 9 9 8 7 6 7 6 5 5 6 8 7 5 5 6 7 7 7 6 7 8 7 7 7 8 7 8
9 9 8 4 8 8 4 5 7 9 11 14 12 10 9 8 9 9 10 8 7 7 7 6 5 6 8 8 5 5 5 6 7 7 7 7 7 7 7 6 5 6 6 7
5 9 8 7 7 8 7 9 9 9 10 12 13 12 11 10 9 9 9 8 7 7 7 7 6 7 9 7 5 4 6 6 6 6 7 7 5 5 6 6 6 6 6 6
6 9 9 8 6 6 6 7 7 7 8 11 13 12 11 10 10 10 8 7 7 8 9 9 7 7 7 6 5 5 6 6 6 6 6 7 6 5 7 7 6 7 7 6
8 8 5 7 8 8 6 7 7 5 5 6 10 12 10 10 9 8 8 7 7 8 8 8 7 7 7 5 5 5 5 5 5 5 5 5 6 7 8 9 11 11 12 10
7 4 1 5 8 9 6 6 5 3 4 5 6 7 7 7 6 6 6 8 9 9 9 8 7 7 6 5 5 6 6 5 5 5 5 6 6 6 8 8 8 9 9 9
5 2 5 7 8 10 9 8 8 8 7 5 3 2 2 3 2 5 8 9 8 7 7 7 7 8 6 5 6 6 6 6 6 5 5 6 6 6 6 7 8 7 7 9
12 9 5 5 9 12 12 13 15 14 13 11 7 4 2 2 4 6 6 5 5 6 7 7 7 9 5 5 6 6 5 5 5 5 5 5 5 5 6 6 6 7 7 7
6 9 10 13 14 14 15 16 14 13 12 11 10 7 4 2 3 4 4 4 6 9 10 8 9 8 5 6 6 5 5 8 7 5 5 5 5 5 5 6 6 6 7 6
13 13 12 12 12 12 11 10 10 10 11 11 10 7 5 4 3 4 5 5 8 9 7 8 9 6 5 7 6 5 4 5 7 5 4 5 5 5 5 5 6 7 7 7
6 5 5 5 6 8 9 10 10 10 9 9 9 7 6 5 5 6 7 6 5 7 8 8 7 6 7 7 6 5 4 4 4 4 4 4 5 5 5 5 6 7 7 7
7 6 6 6 6 6 6 7 8 8 8 8 8 7 6 6 6 7 7 5 6 9 9 7 8 8 7 8 7 4 4 4 4 4 4 5 5 4 4 5 5 6 6 6
6 6 7 7 7 6 7 7 7 7 7 7 7 7 8 8 7 7 6 6 7 7 6 4 6 7 7 7 8 4 4 4 4 4 4 4 4 4 4 5 5 6 6 6
6 6 7 7 7 7 7 7 6 7 7 7 6 6 7 8 8 7 6 8 8 7 6 7 5 5 6 6 7 4 4 4 3 3 3 3 4 4 4 5 5 5 5 6
5 6 7 7 7 8 7 6 5 6 7 7 7 7 7 8 9 8 7 7 8 9 6 4 4 6 6 7 4 4 4 3 3 2 2 3 3 4 4 5 5 5 5 5
5 5 6 7 6 7 7 6 5 5 5 6 7 7 7 7 6 6 8 8 8 10 7 4 4 6 8 5 4 4 3 3 2 2 2 3 3 3 4 5 5 5 5 5
5 6 6 6 5 5 6 6 6 5 6 6 6 7 6 6 6 6 6 9 11 10 6 4 4 5 7 4 4 3 2 1 1 1 2 2 3 3 3 4 4 4 5 6
6 6 5 6 5 5 6 6 7 6 6 6 7 8 6 4 5 7 7 9 10 8 5 3 3 5 4 3 3 3 2 1 0 1 2 2 3 3 3 4 4 4 5 5
6 6 6 6 6 6 5 5 5 5 5 6 6 6 6 6 6 6 6 7 8 6 4 1 2 4 3 4 4 3 2 2 1 2 2 3 3 3 4 4 5 4 5 5
7 6 5 6 6 6 5 5 5 6 6 6 7 7 7 7 6 7 8 6 5 4 2 0 2 3 4 4 4 4 3 2 2 2 3 3 3 3 4 5 4 4 5 5
Wind_Direction
232 242 248 256 263 205 195 195 191 228 228 245 229 218 215 203 187 187 204 212 217 226 238 251 264 269 269 273 277 276 278 276 273 276 278 279 280 282 283 281 281 276 278 277
283 264 260 261 268 236 211 198 215 244 259 251 229 165 190 197 191 205 217 224 228 232 239 246 251 258 265 269 272 273 271 273 277 281 283 282 283 284 285 285 284 281 277 276
257 305 353 289 251 226 229 211 186 212 241 206 177 196 207 206 202 210 219 223 226 230 232 238 242 244 252 260 271 273 270 275 279 281 283 285 289 290 287 286 284 285 280 276
185 35 248 249 247 215 225 242 211 230 243 206 208 209 219 202 198 213 219 221 226 228 232 237 237 241 249 261 267 270 274 276 280 282 284 288 290 288 285 283 283 283 283 280
136 190 273 292 269 182 183 263 219 214 224 178 102 56 298 224 204 210 212 213 218 219 218 227 237 241 248 263 267 271 271 272 277 279 285 291 291 288 287 287 288 285 282 280
139 168 233 252 259 159 114 280 236 192 192 164 128 165 255 228 202 216 220 216 217 214 211 228 240 229 236 255 263 264 264 267 274 277 281 286 286 285 284 284 286 289 286 281
171 209 256 254 222 129 165 243 229 191 188 171 184 205 223 207 198 208 213 215 209 201 210 226 227 209 234 251 255 256 262 270 277 279 280 280 280 280 285 288 290 289 288 286
149 189 260 242 148 183 218 235 212 198 193 191 212 223 229 221 212 207 210 211 200 200 223 231 217 207 235 248 251 258 262 270 277 281 283 286 284 288 288 286 291 293 293 295
187 216 241 230 216 236 225 233 230 209 206 201 211 222 223 223 220 214 210 207 197 201 222 235 221 208 231 247 247 250 260 270 279 287 286 282 280 287 294 291 288 292 292 292
246 267 265 266 258 257 233 231 240 222 208 193 207 218 218 219 217 214 212 206 197 196 217 235 230 222 231 245 243 241 260 275 284 291 295 294 286 279 281 286 290 293 292 290
257 274 299 297 279 275 274 260 257 241 212 205 209 219 215 216 214 211 209 202 191 198 215 230 231 233 238 237 225 238 258 273 284 284 286 294 294 281 276 270 259 268 279 277
238 246 232 275 308 326 312 289 271 253 244 223 210 221 216 217 213 202 202 194 198 209 219 230 230 237 240 229 216 230 258 272 277 285 289 291 300 305 280 265 274 267 255 255
257 292 294 301 336 345 335 324 323 291 260 257 241 230 220 219 210 196 196 197 207 213 219 226 231 240 241 224 213 224 244 263 274 281 288 294 299 304 310 312 303 291 280 276
331 16 31 7 352 357 8 11 26 25 11 353 327 304 252 236 207 202 210 212 209 211 220 223 229 242 239 215 212 227 242 259 267 272 280 286 289 291 291 298 308 309 302 292
29 50 61 24 25 24 23 29 32 22 11 9 9 5 332 264 239 235 231 214 199 213 225 222 228 242 230 206 213 228 241 254 263 271 275 278 283 288 290 291 290 294 300 302
37 47 42 37 31 24 25 26 24 12 5 4 5 358 340 291 260 257 242 207 204 224 225 220 229 236 211 201 213 229 243 259 271 275 282 286 289 293 297 299 299 297 296 299
49 36 23 21 16 15 16 15 11 2 359 358 350 343 345 348 326 293 267 240 234 241 231 219 229 227 202 202 207 223 238 262 276 280 277 283 289 292 295 298 298 298 296 294
62 52 34 19 6 2 360 360 360 357 350 338 339 345 348 343 316 296 291 281 265 263 250 233 225 208 204 206 206 214 227 247 260 270 278 284 290 290 293 296 299 301 303 306
33 23 13 7 356 350 347 345 340 335 332 337 344 340 327 315 304 300 300 287 265 262 259 236 220 209 207 208 202 206 221 243 259 267 274 287 294 295 298 300 301 303 306 310
16 2 357 353 350 345 336 330 328 331 333 337 341 342 336 327 320 315 308 286 266 262 268 247 220 212 209 203 194 199 217 235 251 266 277 285 294 301 303 303 304 306 311 315
352 346 347 343 334 329 327 325 327 328 329 334 337 327 318 315 318 319 315 306 297 286 275 253 232 214 200 188 187 194 211 226 241 256 273 285 295 303 308 311 312 313 316 319
332 332 331 329 328 324 322 321 321 322 328 331 330 328 327 324 324 320 304 286 295 302 297 269 243 214 193 178 179 186 199 215 232 249 266 282 294 304 312 317 317 318 320 322
314 312 314 315 313 305 310 316 321 320 317 317 317 316 313 306 304 306 310 308 311 308 303 279 242 201 178 168 172 178 186 201 224 253 275 292 300 306 310 316 318 322 328 332
301 301 301 301 306 311 314 309 309 305 300 299 299 298 299 306 308 299 293 302 309 309 304 279 224 182 160 157 157 156 159 177 238 280 300 310 315 316 319 322 325 331 336 338
289 290 293 303 303 289 282 291 301 301 303 302 302 302 299 283 281 297 304 308 312 312 307 273 198 161 145 139 136 127 119 105 18 319 324 332 333 331 333 335 338 340 343 342
280 278 274 267 263 265 270 275 277 283 289 294 296 298 301 301 298 300 304 307 309 305 299 272 163 143 130 122 114 107 91 61 22 1 353 350 348 346 343 343 345 348 347 344
280 275 274 281 278 267 263 263 265 272 273 274 281 288 294 300 302 307 309 309 311 308 306 66 111 110 107 104 99 89 75 55 27 10 2 0 356 351 347 346 347 351 352 350